Weather History for Anniston, AL

Change the Weather History Date:

Tuesday, August 27, 2013

  Actual Average Record
Temperature  
Mean Temperature 74 °F 79 °F  
Max Temperature 87 °F 89 °F 101 °F (1954)
Min Temperature 61 °F 69 °F 53 °F (1952)
Cooling Degree Days 8    
Growing Degree Days 23 (Base 50)    
Moisture  
Dew Point 64 °F    
Average Humidity 73    
Maximum Humidity 97    
Minimum Humidity 48    
Precipitation  
Precipitation 0.00 in 0.10 in 2.02 in (1986)
Month to date precipitation 4.90 2.90  
Year to date precipitation 57.22 34.53  
Sea Level Pressure  
Sea Level Pressure 30.11 in    
Wind  
Wind Speed 1 mph (NW)    
Max Wind Speed 8 mph    
Max Gust Speed 13 mph    
Visibility 9 miles    
Events      
T = Trace of Precipitation, MM = Missing Value Source: NWS Daily Summary

Daily Weather History Graph

Daily Weather History Graph

Search for Another Location

Airport:

Trip Planner

Search our weather history database for the weather conditions in past years. The results will help you decide how hot, cold, wet, or windy it might be!

Date:

Astronomy

Aug. 27, 2013 Rise Set
Actual Time 6:14 AM CDT 7:14 PM CDT
Civil Twilight 5:48 AM CDT 7:40 PM CDT
Nautical Twilight 5:18 AM CDT 8:10 PM CDT
Astronomical Twilight 4:46 AM CDT 8:42 PM CDT
Moon 11:29 PM CDT (8/27) 12:50 PM CDT (8/27)
Length of Visible Light 13h 52m
Length of Day
13h 00m
Waning Gibbous, 57% of the Moon is Illuminated
Aug 27
Waning Gibbous
Aug 28
Last Quarter
Sep 5
New
Sep 12
First Quarter
Sep 19
Full

Hourly Weather History & Observations

Time (CDT) Temp. Heat Index Dew Point Humidity Pressure Visibility Wind Dir Wind Speed Gust Speed Precip Events Conditions
12:53 AM 64.9 °F - 63.0 °F 93% 30.17 in 10.0 mi Calm Calm - N/A   Clear
1:53 AM 64.0 °F - 62.1 °F 93% 30.16 in 9.0 mi Calm Calm - N/A   Clear
2:53 AM 64.0 °F - 62.1 °F 93% 30.15 in 8.0 mi Calm Calm - N/A   Clear
3:53 AM 63.0 °F - 61.0 °F 93% 30.14 in 7.0 mi SE 3.5 mph - N/A   Clear
4:53 AM 62.1 °F - 61.0 °F 96% 30.14 in 8.0 mi Calm Calm - N/A   Clear
5:53 AM 62.1 °F - 60.1 °F 93% 30.15 in 8.0 mi Calm Calm - 0.01 in   Clear
6:53 AM 62.1 °F - 60.1 °F 93% 30.17 in 8.0 mi Calm Calm - N/A   Clear
7:53 AM 66.0 °F - 63.0 °F 90% 30.16 in 9.0 mi Calm Calm - N/A   Clear
8:53 AM 70.0 °F - 64.0 °F 81% 30.16 in 10.0 mi Calm Calm - N/A   Clear
9:53 AM 77.0 °F - 64.9 °F 66% 30.16 in 10.0 mi WSW 3.5 mph - N/A   Clear
10:53 AM 82.0 °F 83.1 °F 63.0 °F 52% 30.15 in 10.0 mi Calm Calm - N/A   Clear
11:53 AM 84.0 °F 84.5 °F 62.1 °F 47% 30.13 in 10.0 mi Variable 4.6 mph - N/A   Clear
12:53 PM 82.9 °F 84.0 °F 63.0 °F 51% 30.11 in 10.0 mi Variable 4.6 mph - N/A   Mostly Cloudy
1:53 PM 84.0 °F 84.9 °F 63.0 °F 49% 30.09 in 9.0 mi North 4.6 mph - N/A   Mostly Cloudy
2:53 PM 84.0 °F 84.5 °F 62.1 °F 47% 30.07 in 10.0 mi Calm Calm - N/A   Mostly Cloudy
3:53 PM 84.9 °F 85.9 °F 63.0 °F 48% 30.06 in 10.0 mi Calm Calm - N/A   Mostly Cloudy
4:53 PM 84.9 °F 85.9 °F 63.0 °F 48% 30.05 in 10.0 mi Calm Calm - N/A   Clear
5:53 PM 84.9 °F 86.1 °F 64.0 °F 49% 30.06 in 10.0 mi NNW 4.6 mph - N/A   Mostly Cloudy
6:53 PM 81.0 °F 82.7 °F 64.9 °F 58% 30.06 in 10.0 mi WNW 3.5 mph - N/A   Clear
7:53 PM 73.9 °F - 68.0 °F 82% 30.05 in 10.0 mi Calm Calm - N/A   Clear
8:53 PM 73.0 °F - 69.1 °F 87% 30.07 in 9.0 mi Calm Calm - N/A   Clear
9:53 PM 71.1 °F - 69.1 °F 93% 30.08 in 7.0 mi Calm Calm - N/A   Clear
10:53 PM 70.0 °F - 68.0 °F 93% 30.08 in 6.0 mi Calm Calm - N/A   Clear
11:53 PM 70.0 °F - 66.9 °F 90% 30.07 in 6.0 mi Calm Calm - N/A   Clear